Content
SEND FEEDBACK

Daily
Averages
Monthly
Summary
Spain

A CORUŅA - DOWNTOWN, SPAIN


Home > Europe > Spain
Elevation: 220 feet     Latitude: 43 22N     Longitude: 008 25W

WEATHER
 
SELECT A DAY
Number of Records: 273,352;   Date Range: 7/1/96 - 10/1/14
 
SHARE

PRINT THIS DATA

[ ← Previous Day ]
WEATHER ALMANAC - JULY 6, 2013
[ Next Day → ]
[ °C ]   °F
Weather ElementAverageHighLow
Temperature83.7 °F95 °F (5:00 pm)64.4 °F (6:30 am)
Dewpoint67.8 °F71.6 °F (11:00 am)62.6 °F (5:30 am)
Humidity61.6 %94 % (6:00 am)43 % (9:00 pm)
Barometer30.11 in30.15 in (1:00 am)30.09 in (3:30 pm)
Wind Speed4 mph9.2 mph (4:00 pm)
Wind Gust20.7 mph (3:30 pm)
Weather ElementAverage
Visibility6.2 mi
Wind DirectionSSE (155.3 °)

Weather ElementTotal
Precipitation---
Cooling Degree Days14.7 (Base 65)
Growing Degree Days29.7 (Base 50)
Averaged from 38 records on July 6, 2013
WEATHER CONDITIONS BREAKOUT
WIND DIRECTION BREAKOUT
WEATHER BY HOUR - JULY 6, 2013
[ °C ]   °F
Local TimeTemperatureDewpointHumidityBarometerVisibilityWind DirectionWind SpeedGust SpeedPrecipitationEventsConditions
12:30 AM73.4 °F66.2 °F78 %30.12 inVariable2.3 mphClear
1:00 AM71.6 °F66.2 °F83 %30.15 inVariable2.3 mphClear
5:30 AM66.2 °F62.6 °F88 %30.12 inCalmClear
6:00 AM66.2 °F64.4 °F94 %30.12 inCalmClear
6:30 AM64.4 °F62.6 °F94 %30.12 inVariable2.3 mphClear
7:00 AM64.4 °F62.6 °F94 %30.12 in6.2 miVariable2.3 mphFogPatches of Fog
7:30 AM66.2 °F64.4 °F94 %30.12 in6.2 miVariable2.3 mphFogPatches of Fog
8:00 AM66.2 °F64.4 °F94 %30.12 inVariable2.3 mphClear
8:30 AM68.0 °F66.2 °F94 %30.12 inCalmClear
9:00 AM71.6 °F69.8 °F94 %30.12 inCalmClear
9:30 AM75.2 °F68.0 °F78 %30.12 inCalmClear
10:00 AM80.6 °F68.0 °F65 %30.12 inVariable2.3 mphClear
10:30 AM82.4 °F69.8 °F66 %30.12 inVariable2.3 mphClear
11:00 AM86.0 °F71.6 °F62 %30.12 inVariable2.3 mphClear
11:30 AM87.8 °F71.6 °F58 %30.12 inSE (140°)3.5 mphClear
12:00 PM87.8 °F69.8 °F55 %30.12 inVariable4.6 mphClear
12:30 PM86.0 °F69.8 °F58 %30.12 inNorth (360°)3.5 mphClear
1:00 PM89.6 °F69.8 °F52 %30.12 inNorth (360°)3.5 mphClear
1:30 PM91.4 °F71.6 °F52 %30.12 inNorth (360°)3.5 mphClear
2:00 PM91.4 °F68.0 °F46 %30.12 inNorth (360°)5.8 mphClear
2:30 PM91.4 °F69.8 °F49 %30.12 inNorth (360°)6.9 mphClear
3:00 PM93.2 °F69.8 °F46 %30.12 inNorth (350°)5.8 mphClear
3:30 PM93.2 °F69.8 °F46 %30.09 inNorth (350°)6.9 mph20.7 mphClear
4:00 PM93.2 °F69.8 °F46 %30.09 inNorth (350°)9.2 mphClear
4:30 PM93.2 °F69.8 °F46 %30.09 inNorth (360°)6.9 mphClear
5:00 PM95.0 °F69.8 °F44 %30.09 inNorth (350°)6.9 mphClear
5:30 PM95.0 °F71.6 °F47 %30.09 inNorth (350°)8.1 mphClear
6:00 PM95.0 °F69.8 °F44 %30.09 inNorth (350°)8.1 mphClear
7:00 PM95.0 °F69.8 °F44 %30.09 inNorth (360°)5.8 mphClear
7:30 PM95.0 °F69.8 °F44 %30.09 inNorth (360°)5.8 mphClear
8:00 PM93.2 °F68.0 °F44 %30.09 inNorth (360°)4.6 mphClear
8:30 PM93.2 °F68.0 °F44 %30.09 inVariable3.5 mphClear
9:00 PM91.4 °F66.2 °F43 %30.12 inENE (60°)5.8 mphClear
9:30 PM89.6 °F66.2 °F46 %30.12 inENE (70°)5.8 mphClear
10:00 PM86.0 °F66.2 °F51 %30.12 inEast (90°)5.8 mphClear
10:30 PM84.2 °F64.4 °F51 %30.12 inEast (80°)3.5 mphClear
11:00 PM84.2 °F64.4 °F51 %30.15 inESE (120°)4.6 mphClear
11:30 PM82.4 °F64.4 °F54 %30.15 inVariable2.3 mphClear
Hourly data recorded from LECO, located miles away from A Coruņa - Downtown, Spain







STORIES FROM OUR PARTNERS